Location: *
(45.5224°N, 122.7471°W)
Time: 04:37:06
(UTC+00:00)

PAYLOAD A - Pass Details

Date: 09 April 2020
Orbit: 691 x 833 km, 98.3° (Epoch: 24 May)

Event Time Altitude Azimuth Distance (km) Brightness Sun altitude
Rises 12:45:50 0° 10° (N) 3,382 7.8 -9.1°
Reaches altitude 10° 12:48:15 10° 6° (N) 2,435 7.0 -8.7°
Maximum altitude 12:53:31 57° 289° (WNW) 952 4.3 -7.9°
Drops below altitude 10° 12:58:38 10° 212° (SSW) 2,351 6.1 -7.0°
Sets 13:00:56 0° 208° (SSW) 3,255 6.8 -6.6°
